Terminal Aerodrome Forecast
Issued by NWS

Home | Current Version | Previous Version | Graphics & Text | Print | Product List | Glossary On
Versions: 1 2 3 4 5 6 7 8 9 10 11 12 13 14 15 16 17 18 19 20 21 22 23 24 25
000
FTUS41 KCLE 151300 AAA
TAFFDY
TAF AMD
KFDY 151320Z 1513/1612 16005KT 1/4SM FG VV003
      TEMPO 1514/1515 3/4SM BR SCT004
     FM151500 17008KT 5SM BR SCT010
     FM151700 18006KT P6SM BKN030
     FM152300 13007KT 6SM HZ OVC035
     FM160300 13006KT 3SM -RA SCT012 OVC020
     FM160700 17008KT 2SM -RA OVC008=

USA.gov is the U.S. government's official web portal to all federal, state and local government web resources and services.